QPF
0.00 0.00 0.00 0.00 0.00 0.01 0.00 0.00 0.01 0.11 0.11 0.01 0.01 0.00 0.00 0.00 0.00 0.00 0.00 0.00 0.01 0.00
0.00 0.00 0.00 0.00 0.00 0.00 0.00 0.05 0.04 0.01 0.12 0.07 0.09 0.04 0.01 0.00 0.00 0.00 0.01 0.00 0.02 0.04
0.00 0.00 0.00 0.00 0.00 0.00 0.00 0.06 0.06 0.00 0.04 0.07 0.04 0.01 0.00 0.00 0.06 0.00 0.00 0.00 0.00 0.00
0.00 0.00 0.00 0.00 0.00 0.00 0.00 0.00 0.00 0.00 0.00 0.00 0.00 0.00 0.00 0.02 0.12 0.07 0.02 0.01 0.00 0.01
0.00 0.00 0.00 0.00 0.00 0.00 0.00 0.00 0.00 0.00 0.00 0.00 0.00 0.00 0.00 0.01 0.03 0.08 0.15 0.16 0.05 0.06
0.00 0.00 0.00 0.00 0.00 0.00 0.00 0.00 0.00 0.02 0.01 0.02 0.04 0.08 0.05 0.05 0.00 0.02 0.01 0.02 0.02 0.01
0.00 0.00 0.00 0.00 0.00 0.00 0.00 0.00 0.01 0.06 0.02 0.02 0.08 0.04 0.03 0.03 0.00 0.00 0.00 0.00 0.00 0.00
0.00 0.00 0.00 0.00 0.00 0.00 0.00 0.00 0.01 0.02 0.00 0.00 0.01 0.02 0.01 0.00 0.00 0.00 0.00 0.00 0.00 0.01
0.00 0.00 0.00 0.00 0.00 0.00 0.00 0.00 0.01 0.04 0.04 0.07 0.05 0.04 0.00 0.00 0.00 0.00 0.00 0.00 0.00 0.01
0.00 0.00 0.00 0.00 0.00 0.00 0.00 0.00 0.00 0.01 0.03 0.03 0.00 0.00 0.00 0.00 0.00 0.00 0.00 0.00 0.00 0.00
0.00 0.00 0.00 0.00 0.01 0.03 0.03 0.01 0.03 0.06 0.04 0.00 0.00 0.00 0.00 0.00 0.00 0.00 0.00 0.00 0.00 0.00
0.00 0.00 0.00 0.00 0.01 0.03 0.04 0.06 0.09 0.04 0.00 0.00 0.00 0.00 0.00 0.00 0.00 0.00 0.00 0.00 0.00 0.00
0.00 0.00 0.00 0.01 0.03 0.04 0.04 0.01 0.00 0.00 0.00 0.00 0.00 0.00 0.00 0.00 0.00 0.00 0.00 0.00 0.00 0.00
0.00 0.00 0.03 0.04 0.02 0.02 0.02 0.01 0.00 0.00 0.00 0.00 0.00 0.00 0.00 0.00 0.00 0.00 0.00 0.00 0.00 0.00
MSLP
1013.62 1013.53 1013.37 1013.29 1013.98 1014.70 1013.97 1013.59 1013.85 1015.13 1015.04 1015.48 1016.05 1016.11 1016.14 1016.38 1016.59 1016.51 1016.82 1017.01 1017.20 1016.77
1013.20 1013.22 1012.89 1012.50 1012.78 1013.49 1013.87 1013.45 1012.89 1015.63 1016.08 1014.93 1015.58 1015.90 1016.25 1016.13 1016.47 1016.62 1016.83 1016.56 1016.75 1016.97
1012.66 1013.05 1013.05 1012.86 1012.82 1012.66 1013.59 1013.10 1014.61 1015.87 1016.30 1015.26 1015.40 1015.90 1016.15 1015.68 1016.12 1016.41 1016.30 1016.10 1016.06 1016.39
1011.99 1012.49 1012.99 1012.96 1013.10 1013.42 1014.57 1015.04 1015.57 1015.80 1015.96 1014.89 1015.07 1015.61 1015.99 1016.03 1016.10 1016.21 1016.24 1016.31 1016.20 1016.10
1011.52 1011.90 1012.29 1012.65 1012.75 1012.98 1013.52 1014.62 1015.22 1015.25 1014.81 1014.53 1015.09 1015.50 1015.79 1015.81 1015.58 1015.97 1016.20 1016.30 1016.23 1015.91
1010.95 1011.51 1011.77 1012.33 1012.69 1012.86 1013.10 1013.51 1013.71 1014.03 1014.31 1014.88 1015.29 1015.51 1015.62 1015.71 1015.77 1015.81 1016.01 1016.14 1016.06 1015.98
1010.21 1011.02 1011.60 1012.06 1012.53 1013.00 1013.24 1013.65 1013.94 1014.29 1014.76 1014.92 1015.30 1015.40 1015.49 1015.63 1015.84 1015.71 1015.71 1015.74 1015.86 1015.77
1010.08 1010.73 1011.34 1011.94 1012.26 1012.79 1013.18 1013.56 1013.94 1014.30 1014.55 1014.72 1014.80 1014.91 1015.35 1015.52 1015.63 1015.66 1015.65 1015.58 1015.60 1015.64
1010.06 1010.58 1011.06 1011.68 1012.05 1012.60 1013.07 1013.39 1013.83 1014.11 1014.53 1014.55 1015.20 1015.29 1015.54 1015.64 1015.57 1015.60 1015.68 1015.73 1016.01 1016.03
1009.97 1010.37 1010.87 1011.48 1011.88 1012.47 1012.90 1012.97 1013.40 1013.87 1014.22 1014.44 1015.39 1015.64 1015.97 1016.06 1015.78 1015.86 1016.16 1016.59 1016.81 1016.73
1010.02 1010.52 1010.94 1011.24 1011.72 1012.34 1012.95 1012.82 1013.09 1013.75 1014.16 1014.71 1015.74 1015.96 1016.18 1016.25 1016.05 1016.20 1016.49 1016.47 1016.70 1016.87
1009.88 1010.10 1010.44 1010.85 1011.44 1012.10 1012.46 1012.58 1013.27 1013.66 1013.94 1014.72 1016.09 1016.26 1016.39 1016.44 1015.65 1015.98 1016.15 1016.59 1016.92 1017.02
1009.10 1009.55 1009.90 1010.55 1011.13 1011.87 1012.31 1012.53 1012.57 1013.47 1014.22 1015.20 1016.27 1016.70 1016.64 1016.43 1015.43 1015.61 1015.62 1015.82 1017.07 1017.39
1008.11 1008.88 1009.82 1010.67 1011.20 1011.66 1012.05 1012.05 1012.66 1013.57 1014.71 1015.49 1016.36 1017.03 1016.76 1016.44 1016.16 1016.08 1015.80 1015.56 1015.83 1017.38
Thickness
5801 5801 5803 5807 5797 5791 5805 5811 5809 5799 5797 5791 5787 5787 5787 5788 5787 5788 5784 5781 5779 5780
5802 5802 5804 5810 5812 5810 5808 5796 5803 5786 5787 5797 5789 5787 5787 5789 5787 5786 5783 5784 5782 5777
5805 5803 5803 5805 5806 5813 5805 5801 5780 5785 5784 5794 5792 5788 5788 5793 5791 5787 5787 5787 5786 5781
5808 5806 5802 5802 5802 5804 5794 5793 5788 5789 5787 5793 5792 5790 5789 5789 5789 5787 5786 5785 5784 5783
5810 5808 5804 5802 5802 5803 5802 5795 5791 5792 5794 5793 5792 5791 5789 5789 5793 5789 5782 5779 5781 5783
5811 5808 5806 5802 5799 5799 5800 5797 5799 5797 5796 5792 5790 5790 5790 5790 5790 5789 5787 5784 5782 5780
5816 5810 5807 5803 5798 5796 5797 5794 5795 5794 5792 5793 5791 5792 5792 5790 5787 5788 5787 5786 5784 5783
5817 5814 5809 5804 5800 5798 5796 5793 5793 5792 5793 5794 5796 5796 5793 5790 5787 5786 5785 5786 5785 5783
5817 5814 5810 5806 5802 5800 5797 5794 5792 5793 5791 5795 5790 5788 5788 5786 5786 5786 5783 5781 5780 5779
5818 5815 5811 5808 5803 5799 5795 5797 5796 5795 5795 5794 5788 5784 5783 5781 5784 5782 5778 5772 5769 5769
5817 5812 5811 5809 5805 5801 5795 5797 5797 5794 5794 5792 5784 5779 5778 5777 5780 5776 5773 5771 5768 5765
5819 5816 5814 5811 5807 5803 5798 5798 5795 5795 5795 5790 5779 5776 5774 5773 5781 5775 5771 5767 5765 5763
5827 5822 5818 5814 5809 5804 5800 5799 5802 5795 5791 5783 5775 5769 5770 5771 5780 5773 5774 5774 5759 5753
5837 5827 5819 5811 5806 5802 5799 5802 5797 5791 5784 5778 5771 5765 5766 5769 5772 5769 5770 5770 5767 5755